Stations météo

réclame
Mon MeteoGroup
D15-FA-1, Pays-Bas (6201): Température de l'air & dewpoint: 17.01.2020 19:00:00 - 23.01.2020 19:00:00 (CET)D15-FA-1, Pays-Bas (6201): Vitesse du vent & gusts: 17.01.2020 19:00:00 - 23.01.2020 19:00:00 (CET)D15-FA-1, Pays-Bas (6201): Direction du vent: 17.01.2020 19:00:00 - 23.01.2020 19:00:00 (CET)D15-FA-1, Pays-Bas (6201): reduced air pressure: 17.01.2020 19:00:00 - 23.01.2020 19:00:00 (CET)D15-FA-1, Pays-Bas (6201): visibility: 17.01.2020 19:00:00 - 23.01.2020 19:00:00 (CET)
Date & Time tt [°C] td [°C] ff [km/h] ff [knt] fx [km/h] fx [knt] dd ppp [hPa] vv [km]
23.01.2020 19:00:00 7,0 7,0 22 12 - - - 1026,8 10
23.01.2020 18:00:00 6,8 6,3 31 17 32 18 W 1027,1 10
23.01.2020 17:00:00 7,1 6,7 26 14 25 14 WSW 1027,3 2,8
23.01.2020 16:00:00 7,1 6,9 24 13 29 16 WSW 1027,7 6
23.01.2020 15:00:00 7,5 7,0 28 15 29 16 SW 1028,3 6
23.01.2020 14:00:00 7,5 7,3 21 11 25 14 - 1029,4 8
23.01.2020 13:00:00 7,6 7,1 21 11 25 14 WSW 1030,2 9
23.01.2020 12:00:00 7,6 7,0 21 11 22 12 - 1031,1 7
23.01.2020 11:00:00 7,5 7,1 21 11 22 12 W 1031,7 7
23.01.2020 10:00:00 7,6 7,4 21 11 22 12 W 1032,1 7
23.01.2020 09:00:00 7,8 7,5 21 11 25 14 WSW 1032,4 7
23.01.2020 08:00:00 7,7 7,5 18 10 22 12 WSW 1032,5 9
23.01.2020 07:00:00 7,4 7,4 22 12 29 16 WSW 1032,8 2,0
23.01.2020 06:00:00 7,3 7,3 28 15 29 16 SW 1033,0 1,1
23.01.2020 05:00:00 7,3 7,3 26 14 29 16 SW 1033,4 0,9
23.01.2020 04:00:00 7,2 7,2 24 13 29 16 SW 1034,2 0,9
23.01.2020 03:00:00 7,0 7,0 28 15 32 18 SW 1034,7 0,6
23.01.2020 02:00:00 7,0 7,0 24 13 29 16 SW 1035,1 0,6
23.01.2020 01:00:00 6,6 6,6 18 10 22 12 S 1035,6 1,1
23.01.2020 00:00:00 6,2 6,1 15 8 22 12 - 1035,8 0,9
22.01.2020 23:00:00 5,7 5,7 11 6 11 6 SSE 1036,2 0,7
22.01.2020 22:00:00 5,9 5,8 8 4 11 6 SW 1036,1 1,5
22.01.2020 21:00:00 6,1 5,8 4 2 7 4 - 1036,4 1,2
22.01.2020 20:00:00 6,2 6,2 2 1 11 6 - 1036,4 0,9
22.01.2020 19:00:00 6,3 6,3 5 3 11 6 N 1036,3 0,9
22.01.2020 18:00:00 6,4 6,4 11 6 14 8 NW 1036,3 1,0
22.01.2020 17:00:00 6,7 6,7 16 9 18 10 NNW 1035,8 0,9
22.01.2020 16:00:00 6,9 6,8 16 9 18 10 NW 1035,6 2,6
22.01.2020 15:00:00 7,4 7,4 13 7 14 8 NW 1035,6 6
22.01.2020 14:00:00 7,4 7,1 11 6 11 6 NW 1036,1 6
22.01.2020 13:00:00 7,5 7,5 11 6 14 8 NNW 1036,5 1,6
22.01.2020 12:00:00 7,6 7,6 16 9 14 8 NW 1037,0 3,0
22.01.2020 11:00:00 7,6 7,6 15 8 18 10 NW 1036,6 2,7
22.01.2020 10:00:00 7,7 7,6 16 9 18 10 NW 1036,5 2,6
22.01.2020 09:00:00 7,6 7,5 15 8 18 10 WNW 1035,9 1,8
22.01.2020 08:00:00 7,9 7,3 18 10 22 12 WNW 1035,6 7
22.01.2020 07:00:00 7,9 7,4 15 8 22 12 WNW 1035,7 10
22.01.2020 06:00:00 7,7 7,3 9 5 14 8 NW 1035,5 10
22.01.2020 05:00:00 8,0 7,3 22 12 22 12 NW 1035,6 10
22.01.2020 04:00:00 7,8 7,1 24 13 25 14 WNW 1035,7 10
22.01.2020 03:00:00 7,7 6,9 28 15 29 16 W 1035,9 10
22.01.2020 02:00:00 7,6 6,9 28 15 29 16 W 1036,1 10
22.01.2020 01:00:00 7,5 6,4 29 16 29 16 W 1036,3 10
22.01.2020 00:00:00 7,6 6,6 28 15 29 16 W 1036,4 10
21.01.2020 23:00:00 7,5 6,4 28 15 29 16 W 1036,4 10
21.01.2020 22:00:00 7,4 6,3 29 16 29 16 W 1036,8 10
21.01.2020 21:00:00 7,5 6,2 28 15 29 16 W 1037,0 10
21.01.2020 20:00:00 7,4 6,4 28 15 25 14 W 1037,2 10
21.01.2020 19:00:00 7,3 6,2 28 15 25 14 W 1037,2 10
21.01.2020 18:00:00 7,3 5,9 22 12 29 16 W 1037,3 10
21.01.2020 17:00:00 7,2 6,1 28 15 29 16 W 1037,7 10
21.01.2020 16:00:00 7,2 5,7 29 16 32 18 W 1038,1 10
21.01.2020 15:00:00 7,1 5,4 26 14 29 16 W 1038,0 10
21.01.2020 14:00:00 7,0 5,4 28 15 29 16 WSW 1038,3 10
21.01.2020 13:00:00 7,0 5,1 28 15 29 16 W 1039,2 10
21.01.2020 12:00:00 7,2 4,8 22 12 25 14 WSW 1039,4 10
21.01.2020 11:00:00 7,3 4,7 16 9 18 10 WSW 1039,8 10
21.01.2020 10:00:00 6,9 4,0 13 7 22 12 - 1039,7 10
21.01.2020 09:00:00 6,8 4,0 18 10 22 12 W 1039,5 10
21.01.2020 08:00:00 6,5 3,7 21 11 25 14 W 1039,5 10
21.01.2020 07:00:00 6,7 3,8 16 9 22 12 - 1039,5 10
21.01.2020 06:00:00 6,8 3,9 13 7 22 12 - 1039,4 10
21.01.2020 05:00:00 7,0 4,2 11 6 18 10 W 1039,9 10
21.01.2020 04:00:00 6,9 4,6 15 8 18 10 W 1040,2 10
21.01.2020 03:00:00 7,0 5,6 15 8 22 12 WNW 1040,3 10
21.01.2020 02:00:00 6,9 5,7 24 13 29 16 W 1040,5 10
21.01.2020 01:00:00 6,9 5,5 26 14 29 16 W 1040,8 10
21.01.2020 00:00:00 6,9 5,4 26 14 29 16 WSW 1041,2 10
20.01.2020 23:00:00 6,9 5,2 28 15 36 19 WSW 1041,2 10
20.01.2020 22:00:00 7,1 5,0 31 17 32 18 W 1041,8 10
20.01.2020 21:00:00 7,0 4,5 28 15 29 16 WSW 1042,2 10
20.01.2020 20:00:00 6,8 4,1 29 16 29 16 WSW 1042,4 10
20.01.2020 19:00:00 6,5 4,3 29 16 32 18 WSW 1042,5 10
20.01.2020 18:00:00 6,5 4,4 24 13 25 14 WSW 1042,5 10
20.01.2020 17:00:00 6,7 5,2 26 14 25 14 WSW 1042,7 10
20.01.2020 16:00:00 6,9 5,1 29 16 29 16 W 1042,9 10
20.01.2020 15:00:00 6,9 5,2 26 14 25 14 WSW 1043,2 10
20.01.2020 14:00:00 6,8 5,3 26 14 25 14 WSW 1043,7 10
20.01.2020 13:00:00 6,9 5,2 26 14 25 14 WSW 1044,3 10
20.01.2020 12:00:00 7,0 5,2 26 14 29 16 WSW 1044,5 10
20.01.2020 11:00:00 7,0 5,0 26 14 25 14 WSW 1044,9 10
20.01.2020 10:00:00 6,9 5,0 26 14 29 16 WSW 1044,7 10
20.01.2020 09:00:00 6,9 5,3 29 16 32 18 W 1044,8 10
20.01.2020 08:00:00 6,8 4,9 34 18 32 18 W 1044,7 10
20.01.2020 07:00:00 6,8 4,9 31 17 40 21 W 1044,5 10
20.01.2020 06:00:00 6,7 5,0 26 14 36 19 - 1044,3 10
20.01.2020 05:00:00 6,8 5,0 29 16 29 16 WSW 1044,7 10
20.01.2020 04:00:00 6,9 4,9 28 15 29 16 WSW 1045,3 10
20.01.2020 03:00:00 7,0 4,7 26 14 29 16 WSW 1045,6 10
20.01.2020 02:00:00 7,2 3,9 24 13 25 14 WSW 1045,7 10
20.01.2020 01:00:00 7,2 4,4 22 12 25 14 WSW 1045,8 10
20.01.2020 00:00:00 7,2 3,9 22 12 25 14 - 1046,1 10
19.01.2020 23:00:00 7,2 4,5 21 11 32 18 W 1046,0 10
19.01.2020 22:00:00 7,2 4,4 29 16 32 18 W 1045,1 10
19.01.2020 21:00:00 7,1 4,2 26 14 25 14 W 1045,0 10
19.01.2020 20:00:00 7,1 4,5 24 13 29 16 W 1044,9 10
19.01.2020 19:00:00 7,1 4,1 28 15 29 16 WNW 1044,9 10
19.01.2020 18:00:00 7,3 4,0 21 11 25 14 WNW 1044,6 10
19.01.2020 17:00:00 7,5 3,3 26 14 29 16 NW 1044,2 9
19.01.2020 16:00:00 8,2 4,5 26 14 29 16 WNW 1043,3 10
19.01.2020 15:00:00 8,0 4,4 26 14 36 19 NW 1042,6 10
19.01.2020 14:00:00 7,9 4,2 31 17 43 23 NNW 1042,5 10
19.01.2020 13:00:00 7,8 4,0 37 20 40 21 NW 1042,2 10
19.01.2020 12:00:00 7,9 4,1 44 24 43 23 NNW 1042,0 10
19.01.2020 11:00:00 7,9 4,3 39 21 43 23 NNW 1041,3 10
19.01.2020 10:00:00 7,8 4,7 42 23 47 25 NNW 1040,3 10
19.01.2020 09:00:00 7,8 4,0 48 26 47 25 N 1039,1 10
19.01.2020 08:00:00 7,8 4,0 46 25 47 25 N 1037,8 10
19.01.2020 07:00:00 7,7 4,0 42 23 47 25 N 1036,9 10
19.01.2020 06:00:00 7,4 3,2 52 28 58 31 N 1035,6 10
19.01.2020 05:00:00 6,8 2,2 65 35 76 41 NNW 1035,0 10
19.01.2020 04:00:00 7,3 2,0 67 36 68 37 NNW 1034,0 10
19.01.2020 03:00:00 7,3 1,8 63 34 65 35 NNW 1033,0 10
19.01.2020 02:00:00 7,4 2,7 57 31 61 33 NNW 1032,0 10
19.01.2020 01:00:00 6,0 2,9 48 26 61 33 N 1031,1 10
19.01.2020 00:00:00 7,3 2,1 59 32 61 33 NW 1029,7 10
18.01.2020 23:00:00 7,0 2,2 44 24 54 29 NW 1029,2 10
18.01.2020 22:00:00 6,8 2,7 52 28 68 37 NNW 1028,3 10
18.01.2020 21:00:00 6,5 1,2 57 31 65 35 NW 1027,8 10
18.01.2020 20:00:00 7,2 1,4 44 24 54 29 NW 1027,0 10
18.01.2020 19:00:00 5,9 1,8 44 24 61 33 WNW 1026,4 10
18.01.2020 18:00:00 7,2 2,3 55 30 54 29 WNW 1025,3 10
18.01.2020 17:00:00 6,9 2,4 59 32 61 33 NW 1024,1 10
18.01.2020 16:00:00 7,1 1,9 55 30 58 31 NW 1023,1 10
18.01.2020 15:00:00 7,3 1,9 54 29 58 31 NW 1022,3 -
18.01.2020 14:00:00 7,4 2,4 55 30 54 29 WNW 1021,8 10
18.01.2020 13:00:00 7,3 2,6 50 27 54 29 WNW 1021,2 10
18.01.2020 12:00:00 7,5 2,1 52 28 54 29 NW 1020,6 -
18.01.2020 11:00:00 7,2 1,9 44 24 61 33 NW 1019,7 10
18.01.2020 10:00:00 6,7 1,7 42 23 43 23 NW 1018,9 10
18.01.2020 09:00:00 6,9 2,5 41 22 47 25 NW 1017,7 10
18.01.2020 08:00:00 6,9 2,3 46 25 50 27 WNW 1016,8 10
18.01.2020 07:00:00 7,0 2,9 46 25 54 29 WNW 1015,6 10
18.01.2020 06:00:00 7,2 3,4 44 24 58 31 WNW 1014,9 10
18.01.2020 05:00:00 6,9 3,8 52 28 54 29 W 1014,2 10
18.01.2020 04:00:00 7,1 3,7 50 27 58 31 W 1013,7 10
18.01.2020 03:00:00 6,5 2,3 46 25 58 31 W 1013,1 8
18.01.2020 02:00:00 6,9 3,9 48 26 54 29 W 1012,5 10
18.01.2020 01:00:00 7,0 3,6 48 26 50 27 W 1011,9 10
18.01.2020 00:00:00 7,0 3,4 46 25 58 31 W 1011,4 10
17.01.2020 23:00:00 7,1 2,9 50 27 61 33 W 1010,9 10
17.01.2020 22:00:00 6,7 2,5 48 26 65 35 W 1010,3 10
17.01.2020 21:00:00 5,7 2,3 52 28 65 35 W 1009,7 10
17.01.2020 20:00:00 6,5 2,6 57 31 58 31 WNW 1008,8 10
17.01.2020 19:00:00 7,3 5,7 39 21 40 21 WNW 1007,3 10

tt = Température de l'air
td = dewpoint
ff = Vitesse du vent
fx = gusts
dd = Direction du vent
ppp = reduced air pressure
vv = visibility

stations d'obs. à proximité